Location: ČR
(50.0000°N, 15.0000°E)
Time: 06:45:12
(UTC+02:00)

A-11 Canister half - Pass Details

Date: 15 March 2026
Orbit: 1514 x 1685 km, 47.2° (Epoch: 18 April)

Event Time Altitude Azimuth Distance (km) Brightness Sun altitude
Rises 20:09:33 0° 288° (WNW) 4,938 13.3 -20.4°
Reaches altitude 10° 20:12:57 10° 282° (WNW) 3,953 12.3 -20.9°
Maximum altitude 20:22:06 40° 218° (SW) 2,308 10.0 -22.2°
Enters shadow 20:28:30 20° 162° (SSE) 3,207 10.3 -23.1°
Drops below altitude 10° 20:31:08 10° 153° (SSE) 3,896 - -23.5°
Sets 20:34:29 0° 146° (SSE) 4,861 - -24.0°
